International Virtual Aviation Organisation

Russian Federation and Kazakhstan MCD

 

Карточка аэропорта UAII

Внимание!
Информация на этой странице в стадии наполнения.
Если вы не увидели какой-то информации, или заметили неточность - пожалуйста сообщите нам!
Спасибо!
Команда RU-STAFF
Название аэропортаШымкент
Название аэропорта (англ.)Shymkent
Превышение1389 ft. (423.4 m.)
Координаты42°21.348', 69°28.734'
Высота перехода5000
Эшелон переходаFL70
Коды ответчика3430-3437, 3530-3537
Зона ОрВДШымкент РПИ (UAII)
Данные METARUAII 051800Z 00000MPS 2500 BR NSC 12/11 Q1020 R28/0///70 NOSIG RMK QFE727/0970
Проноз погоды (TAF)UAII 051700Z 0518/0618 36003G08MPS 6000 BKN050 OVC100 TX18/0610Z TN08/0601Z TEMPO 0518/0603 12003G08MPS 3100 BR SCT033CB BKN100
NOTAMshow/hide NOTAM
AWOS   TABLE

Информация о ВПП

ВПП Длина ВПП (м.) Покрытие Курс ВПП Частота ILS
103300Железобетон106111.7
283300Железобетон286110.3

Диспетчерские позиции




Спутниковое изображение